[[{"header":{"parameterUnit":"m.s-1","parameterCategory":1,"la1":30.2991,"la2":30.254,"lo1":-89.0895,"lo2":-89.0444,"dy":0.0017,"dx":0.0017,"nx":28,"ny":28,"refTime":"2024-12-15T09:00:00:Z","depth":0,"parameterNumber":2,"parameterNumberName":"U-component_of_WINDS"},"data":[0,0,0,0,0,0,0,0,0,0,0,0,0,0,0,0,0,0,0,0,0,0,0,0,0,0,0,0,0,0,0,0,0,0,0,0,0,0,0,0,0,0,0,0,0,0,0,0,0,0,0,0,0,0,0,0,0,0,-3.1863,-3.1864,0,-3.1932,-3.1933,-3.1934,-3.1892,-3.189,-3.1888,-3.1886,-3.1958,-3.1962,-3.1966,0,0,0,0,0,0,0,0,0,0,0,0,0,-3.1698,-3.1701,-3.1863,-3.1864,-3.1865,-3.1932,-3.1933,-3.1934,-3.1893,-3.189,-3.1888,-3.1886,-3.1957,-3.1962,-3.1966,0,0,0,0,0,0,0,0,0,0,0,0,0,-3.1769,-3.1702,-3.1863,-3.1853,-3.1852,-3.1932,-3.1933,-3.1934,-3.1893,-3.189,-3.1887,-3.1884,-3.1956,-3.1961,-3.1967,-3.2061,0,0,-3.1984,-3.1986,0,0,0,0,0,0,0,0,-3.1765,-3.1775,-3.1853,-3.1853,-3.1853,-3.1901,-3.1901,-3.1977,-3.1894,-3.1878,-3.1886,-3.1883,-3.1942,-3.1948,-3.1968,-3.2065,-3.2068,-3.1985,-3.1988,-3.199,-3.1992,0,0,0,0,0,0,0,-3.176,-3.1772,-3.1891,-3.1854,-3.1854,-3.1845,-3.1852,-3.1915,-3.1926,-3.1879,-3.1876,-3.1885,-3.1941,-3.1962,-3.1969,-3.2069,-3.1984,-3.1989,-3.1993,-3.1995,-3.2249,-3.2252,0,0,0,0,0,0,-3.1755,-3.1768,-3.1888,-3.1893,-3.1801,-3.185,-3.1858,-3.1888,-3.1925,-3.1927,-3.1887,-3.1882,-3.1954,-3.1963,-3.1972,-3.2086,-3.199,-3.1996,-3.1999,-3.2246,-3.225,-3.2253,0,0,0,0,0,0,-3.1752,-3.1767,-3.1886,-3.183,-3.1844,-3.1856,-3.1891,-3.1891,-3.1913,-3.1931,-3.1933,-3.1907,-3.1952,-3.1964,-3.204,-3.2088,-3.1998,-3.2003,-3.2242,-3.2247,-3.2251,-3.2315,0,0,0,0,0,0,-3.1747,-3.1766,-3.1801,-3.1831,-3.1847,-3.1952,-3.1894,-3.1895,-3.1922,-3.1917,-3.195,-3.1953,-3.1951,-3.2031,-3.2045,-3.2094,-3.2008,-3.2237,-3.2244,-3.225,-3.2308,-3.2321,-3.2332,0,0,0,0,0,-3.1742,-3.1816,-3.1803,-3.1818,-3.1892,-3.1955,-3.1965,-3.196,-3.1926,-3.1963,-3.1975,-3.1952,-3.208,-3.204,-3.2055,-3.2106,-3.2234,-3.2242,-3.2249,-3.2303,-3.2319,-3.2332,0,0,0,0,0,0,-3.1792,-3.182,-3.1806,-3.1892,-3.1921,-3.1948,-3.1993,-3.1977,-3.2017,-3.201,-3.2004,-3.2012,-3.2091,-3.2106,-3.206,-3.22,-3.2152,-3.2163,-3.2188,-3.2203,-3.2215,-3.221,-3.2012,0,0,0,0,0,-3.1813,-3.1862,-3.1883,-3.1957,-3.1973,-3.1981,-3.2008,-3.2003,-3.2033,-3.2046,-3.2063,-3.2094,-3.2142,-3.2173,-3.2217,-3.231,-3.2318,-3.2353,-3.2365,-3.2375,-3.2385,-3.2436,-3.2453,-3.2278,-3.2278,-3.2278,0,0,-3.1857,-3.1878,-3.1909,-3.1968,-3.199,-3.2042,-3.1992,-3.2048,-3.2086,-3.2054,-3.2127,-3.2141,-3.2176,-3.2261,-3.2299,-3.2276,-3.2435,-3.2384,-3.2392,-3.2397,-3.2446,-3.2462,-3.2477,-3.2283,-3.2282,-3.2281,0,0,-3.1964,-3.1984,-3.2049,-3.2073,-3.2107,-3.2112,-3.2128,-3.2157,-3.2165,-3.2238,-3.2216,-3.2262,-3.2343,-3.2369,-3.2393,-3.2511,-3.2492,-3.2526,-3.2589,-3.2639,-3.2653,-3.2665,-3.2708,-3.2724,-3.2535,-3.2536,-3.2536,0,-3.2014,-3.209,-3.2084,-3.2143,-3.217,-3.2143,-3.2209,-3.2232,-3.228,-3.23,-3.2272,-3.2375,-3.2396,-3.2488,-3.2517,-3.2537,-3.2555,-3.2522,-3.2651,-3.2664,-3.2675,-3.2716,-3.2732,-3.254,-3.2539,-3.2539,-3.2538,0,-3.2151,-3.2205,-3.2253,-3.23,-3.2332,-3.2394,-3.2398,-3.2432,-3.2424,-3.2432,-3.2507,-3.2532,-3.2582,-3.2603,-3.2595,-3.2694,-3.2679,-3.2652,-3.2603,-3.2696,-3.2734,-3.275,-3.2545,-3.2544,-3.2543,-3.2542,0,0,-3.2291,-3.2335,-3.2353,-3.2374,-3.2411,-3.2452,-3.2513,-3.2562,-3.2592,-3.2626,-3.2678,-3.2748,-3.2723,-3.2751,-3.2746,-3.279,-3.2884,-3.2758,-3.2759,-3.2781,-3.2996,-3.3017,-3.3035,-3.2871,-3.2874,-3.2877,-3.2993,0,-3.2401,-3.2508,-3.2505,-3.2604,-3.2654,-3.263,-3.2684,-3.2713,-3.2723,-3.2767,-3.2777,-3.2828,-3.2791,-3.2808,-3.285,-3.2863,-3.2927,-3.2855,-3.2921,-3.2923,-3.2913,-3.3055,-3.3077,-3.3186,-3.3008,-3.3011,-3.3013,0,-3.2543,-3.2582,-3.2687,-3.2718,-3.2739,-3.2787,-3.2832,-3.2874,-3.2907,-3.2911,-3.2942,-3.2931,-3.2994,-3.2943,-3.3031,-3.2982,-3.3009,-3.302,-3.3024,-3.303,-3.2974,-3.3066,-3.322,-3.3237,-3.3036,-3.3034,-3.3033,0,-3.2636,-3.2715,-3.2788,-3.2807,-3.2844,-3.2879,-3.2896,-3.2926,-3.2956,-3.2996,-3.3015,-3.3062,-3.3088,-3.3124,-3.3127,-3.3089,-3.3216,-3.3165,-3.3222,-3.3222,-3.325,-3.3248,-3.3411,-3.3266,-3.3266,-3.3265,-3.3265,0,-3.2759,-3.2824,-3.283,-3.2875,-3.2948,-3.2945,-3.3017,-3.3031,-3.3058,-3.3106,-3.3089,-3.3134,-3.3134,-3.3181,-3.3183,-3.3256,-3.3268,-3.3273,-3.3273,-3.3275,-3.3275,-3.3293,-3.3286,-3.327,-3.3269,-3.3268,-3.3267,0,-3.2875,-3.2882,-3.296,-3.2989,-3.2999,-3.3051,-3.3077,-3.312,-3.3128,-3.319,-3.3204,-3.3217,-3.3272,-3.3277,-3.334,-3.3342,-3.3431,-3.3422,-3.342,-3.3418,-3.3475,-3.347,-3.3656,-3.3681,-3.3519,-3.352,-3.3522,0,-3.2954,-3.3003,-3.3039,-3.307,-3.3089,-3.3139,-3.317,-3.3168,-3.3201,-3.3243,-3.3282,-3.3335,-3.3377,-3.3465,-3.3481,-3.3529,-3.3522,-3.3584,-3.3529,-3.3531,-3.3525,-3.3522,-3.3527,-3.3595,-3.3597,-3.3598,-3.3599,0,-3.3093,-3.3094,-3.3139,-3.3185,-3.3222,-3.3259,-3.3293,-3.332,-3.3323,-3.3361,-3.3416,-3.3449,-3.3514,-3.3567,-3.3615,-3.3633,-3.3618,-3.3617,-3.3632,-3.3635,-3.3632,-3.3636,-3.3449,-3.3612,-3.3611,-3.361,-3.3609,-3.3609,-3.3193,-3.3237,-3.3269,-3.332,-3.3346,-3.3378,-3.3421,-3.3435,-3.3481,-3.3534,-3.353,-3.3592,-3.3625,-3.3688,-3.371,-3.3759,-3.3738,-3.3761,-3.3767,-3.3773,-3.3779,-3.3624,-3.3768,-3.3767,-3.3767,-3.3767,-3.3766,0,-3.3332,-3.3352,-3.3399,-3.3448,-3.3488,-3.3469,-3.3507,-3.3542,-3.3596,-3.3628,-3.367,-3.3735,-3.3787,-3.3807,-3.3858,-3.3893,-3.3887,-3.3906,-3.3904,-3.3909,-3.3794,-3.3776,-3.391,-3.391,-3.391,-3.391,-3.391,-3.391,-3.3409,-3.3483,-3.3488,-3.3575,-3.3594,-3.3654,-3.3677,-3.3708,-3.3734,-3.3806,-3.3849,-3.3862,-3.389,-3.3943,-3.399,-3.3994,-3.4014,-3.4037,-3.4039,-3.3931,-3.3917,-3.3903,-3.3886,-3.4041,-3.4041,-3.415,-3.4151,-3.4151]},{"header":{"parameterUnit":"m.s-1","parameterCategory":1,"la1":30.2991,"la2":30.254,"lo1":-89.0895,"lo2":-89.0444,"dy":0.0017,"dx":0.0017,"nx":28,"ny":28,"refTime":"2024-12-15T09:00:00:Z","depth":0,"parameterNumber":3,"parameterNumberName":"V-component_of_WINDS"},"data":[0,0,0,0,0,0,0,0,0,0,0,0,0,0,0,0,0,0,0,0,0,0,0,0,0,0,0,0,0,0,0,0,0,0,0,0,0,0,0,0,0,0,0,0,0,0,0,0,0,0,0,0,0,0,0,0,0,0,0.0652,0.0652,0,0.0659,0.0659,0.0659,0.0673,0.0674,0.0674,0.0674,0.068,0.068,0.068,0,0,0,0,0,0,0,0,0,0,0,0,0,0.0653,0.0653,0.0652,0.0652,0.0652,0.0659,0.0659,0.0659,0.0673,0.0674,0.0674,0.0674,0.068,0.068,0.068,0,0,0,0,0,0,0,0,0,0,0,0,0,0.0655,0.0653,0.0652,0.066,0.0661,0.0659,0.0659,0.0659,0.0673,0.0674,0.0674,0.0675,0.0681,0.068,0.068,0.067,0,0,0.068,0.068,0,0,0,0,0,0,0,0,0.0655,0.0655,0.0659,0.066,0.0661,0.0666,0.0661,0.0663,0.0673,0.0669,0.0674,0.0675,0.0675,0.0675,0.0676,0.0671,0.0671,0.068,0.068,0.0679,0.0679,0,0,0,0,0,0,0,0.0655,0.0655,0.0655,0.0659,0.066,0.0664,0.0665,0.0662,0.0669,0.0669,0.067,0.0671,0.0676,0.0676,0.0676,0.0671,0.068,0.068,0.0679,0.0679,0.0661,0.066,0,0,0,0,0,0,0.0654,0.0655,0.0655,0.0655,0.0659,0.0664,0.0665,0.0664,0.0669,0.0671,0.067,0.0671,0.0676,0.0676,0.0676,0.0667,0.0679,0.0679,0.0679,0.0661,0.0661,0.066,0,0,0,0,0,0,0.0654,0.0653,0.0654,0.0655,0.0656,0.0663,0.0662,0.0664,0.0664,0.067,0.0672,0.0669,0.0676,0.0676,0.0672,0.0667,0.0679,0.0679,0.0662,0.0661,0.066,0.0646,0,0,0,0,0,0,0.0653,0.0653,0.0649,0.0655,0.0656,0.065,0.0662,0.0663,0.0664,0.0665,0.067,0.0671,0.0677,0.0673,0.0672,0.0667,0.0679,0.0662,0.0661,0.0661,0.0647,0.0645,0.0644,0,0,0,0,0,0.0653,0.0644,0.0649,0.0649,0.0651,0.0649,0.065,0.0657,0.0663,0.0659,0.0664,0.0671,0.0668,0.0672,0.0672,0.0666,0.0662,0.0662,0.0661,0.0648,0.0646,0.0644,0,0,0,0,0,0,0.0636,0.0645,0.065,0.0643,0.0645,0.0652,0.0647,0.0654,0.0654,0.0656,0.0664,0.0665,0.066,0.0663,0.0668,0.0658,0.0666,0.0665,0.0657,0.0655,0.0653,0.0652,0.0679,0,0,0,0,0,0.0632,0.063,0.0638,0.063,0.0632,0.0639,0.0639,0.0645,0.0648,0.0649,0.0653,0.0656,0.0656,0.0655,0.0655,0.0648,0.065,0.0644,0.0643,0.0641,0.064,0.0638,0.0636,0.0657,0.0657,0.0657,0,0,0.0622,0.0627,0.0625,0.0627,0.063,0.0629,0.064,0.0637,0.0637,0.0648,0.0645,0.0648,0.0652,0.0647,0.0645,0.0649,0.0635,0.064,0.0639,0.0638,0.0637,0.0635,0.0633,0.0657,0.0657,0.0657,0,0,0.0604,0.0607,0.0602,0.0605,0.061,0.0615,0.0614,0.062,0.0623,0.0621,0.063,0.0629,0.0628,0.0631,0.0633,0.0619,0.0625,0.0619,0.0609,0.0607,0.0605,0.0604,0.06,0.0599,0.0618,0.0618,0.0618,0,0.0591,0.059,0.0599,0.0596,0.0598,0.0609,0.0605,0.0607,0.0611,0.0612,0.0617,0.0618,0.0621,0.0618,0.0615,0.0615,0.0615,0.0618,0.0605,0.0604,0.0602,0.0599,0.0597,0.0617,0.0617,0.0617,0.0617,0,0.0575,0.0574,0.0569,0.0574,0.0575,0.0572,0.0581,0.0581,0.0587,0.0592,0.059,0.0595,0.0597,0.0597,0.0602,0.0595,0.0597,0.0603,0.0611,0.06,0.0596,0.0595,0.0616,0.0616,0.0616,0.0616,0,0,0.0544,0.0556,0.0554,0.0558,0.0565,0.0564,0.0562,0.0565,0.0566,0.0569,0.0568,0.0569,0.0575,0.0577,0.0583,0.0581,0.0572,0.0588,0.0588,0.0585,0.0566,0.0561,0.0559,0.0576,0.0576,0.0576,0.0566,0,0.0528,0.0526,0.0535,0.053,0.053,0.0542,0.0541,0.0545,0.0551,0.0552,0.0558,0.0559,0.0566,0.0568,0.0567,0.0573,0.0568,0.0574,0.0576,0.0576,0.0575,0.0558,0.0552,0.0542,0.0564,0.0564,0.0564,0,0.0509,0.0512,0.0508,0.0517,0.0518,0.0516,0.0521,0.0522,0.0528,0.0532,0.0535,0.0543,0.0543,0.0551,0.0551,0.0555,0.0557,0.056,0.056,0.0561,0.0569,0.0558,0.0539,0.0538,0.0562,0.0562,0.0562,0,0.0489,0.0492,0.0491,0.0493,0.0504,0.0503,0.0507,0.0514,0.0516,0.052,0.0522,0.0525,0.0527,0.0531,0.054,0.0545,0.054,0.0548,0.0544,0.0544,0.0542,0.0542,0.0523,0.0542,0.0542,0.0542,0.0542,0,0.047,0.0467,0.0482,0.0481,0.0478,0.049,0.0487,0.0493,0.0499,0.05,0.051,0.0511,0.0523,0.0525,0.0532,0.0532,0.0533,0.0537,0.0539,0.0536,0.0536,0.0537,0.0538,0.0542,0.0542,0.0542,0.0542,0,0.0446,0.0456,0.0456,0.0467,0.047,0.0467,0.0477,0.0477,0.0484,0.0485,0.0486,0.0497,0.0501,0.051,0.0516,0.0521,0.0519,0.0522,0.0517,0.0518,0.0514,0.0514,0.0496,0.0494,0.0514,0.0514,0.0513,0,0.0434,0.0432,0.0444,0.0446,0.045,0.0452,0.0455,0.0466,0.0469,0.0477,0.0476,0.0481,0.0485,0.049,0.0499,0.0504,0.0508,0.0501,0.0508,0.0506,0.0509,0.0509,0.0509,0.0499,0.0499,0.0499,0.0498,0,0.0411,0.0417,0.042,0.0426,0.043,0.0434,0.044,0.0441,0.0454,0.0456,0.046,0.0464,0.0471,0.0475,0.0482,0.0487,0.0495,0.0496,0.0496,0.0493,0.049,0.0493,0.0513,0.0496,0.0497,0.0497,0.0497,0.0497,0.0394,0.0393,0.0402,0.0406,0.0412,0.0418,0.0419,0.0427,0.0431,0.0438,0.0444,0.0448,0.0456,0.0466,0.0471,0.0475,0.0479,0.0478,0.0477,0.0477,0.0476,0.049,0.0476,0.0476,0.0476,0.0476,0.0476,0,0.0372,0.0379,0.0383,0.0391,0.0395,0.0403,0.0411,0.0413,0.0417,0.0424,0.0429,0.0434,0.044,0.0449,0.0456,0.0457,0.0461,0.0458,0.0458,0.046,0.0472,0.0472,0.0455,0.0455,0.0455,0.0455,0.0455,0.0455,0.0362,0.0362,0.0369,0.0374,0.0381,0.0385,0.0389,0.0394,0.0401,0.0407,0.0411,0.0418,0.0427,0.0435,0.044,0.0443,0.0445,0.0441,0.0445,0.0457,0.0459,0.046,0.0461,0.0442,0.0442,0.0433,0.0433,0.0433]}]]